Regional Weather Roundup
Issued by NWS

Home | Current Version | Previous Version | Text Only | Print | Product List | Glossary On
Versions: 1 2 3 4 5 6 7 8 9 10 11 12 13 14 15 16 17 18 19 20 21 22 23 24 25 26 27 28 29 30 31 32 33 34 35 36 37 38 39 40 41 42 43 44 45 46 47 48 49 50
000
ASUS43 KLMK 251010
RWRKY
KENTUCKY REGIONAL WEATHER ROUNDUP
NATIONAL WEATHER SERVICE LOUISVILLE KY
500 AM EST SUN JAN 25 2015

NOTE "FAIR" INDICATES FEW OR NO CLOUDS BELOW 12,000 FEET
WITH NO SIGNIFICANT WEATHER AND/OR OBSTRUCTIONS TO VISIBILITY.

KYZ001>023-026-027-061>063-070>075-251100-
WESTERN AND SOUTH CENTRAL KENTUCKY

CITY           SKY/WX    TMP DP  RH WIND       PRES   REMARKS
PADUCAH        CLOUDY    42  32  67 S8        29.73F
HENDERSON      CLOUDY    43  30  61 S9        29.69F
OWENSBORO      CLOUDY    39  33  79 S10       29.73F WCI  32
HOPKINSVILLE   CLOUDY    40  32  71 S9        29.77F WCI  35
BOWLING GREEN  CLOUDY    37  30  75 S7        29.80F WCI  32
GLASGOW        MOCLDY    36  31  80 S5        29.81F WCI  32
$$

KYZ024-025-028>034-038-045-046-053-251100-
NORTH CENTRAL KENTUCKY

CITY           SKY/WX    TMP DP  RH WIND       PRES   REMARKS
LOUISVILLE/SDF CLOUDY    41  30  65 S6        29.76F
LOUISVILLE/LOU CLOUDY    38  31  76 S5        29.76F WCI  34
FORT KNOX      CLOUDY    37  30  75 S10       29.73F WCI  30
$$

KYZ035>037-039>044-047>052-055>060-089>105-251100-
NORTHEAST KENTUCKY

CITY           SKY/WX    TMP DP  RH WIND       PRES   REMARKS
LEXINGTON      CLOUDY    35  30  82 S9        29.78F WCI  28
COVINGTON      CLOUDY    36  30  79 S9        29.73F WCI  29
FRANKFORT      CLOUDY    37  30  75 SW10      29.76F WCI  30
$$

KYZ054-064>069-076>088-106>120-251100-
SOUTHEAST KENTUCKY

CITY           SKY/WX    TMP DP  RH WIND       PRES   REMARKS
JACKSON        MOCLDY    34  29  82 S6        29.80F WCI  29
LONDON         CLEAR     34  26  72 S3        29.83F
SOMERSET       CLOUDY    32  30  93 CALM      29.85S
MIDDLESBORO    CLEAR     25  24  97 CALM      29.87S FOG
MONTICELLO     SUNNY     39  31  73 SW14      29.86F WCI  31
$$




USA.gov is the U.S. government's official web portal to all federal, state and local government web resources and services.